Flood From: 19-02-2018 06:00 Until: 20-02-2018 06:00 warning for: Flood Level: Yellow info button

Although rather usual in this region, locally or potentially dangerous phenomena are expected. (such as local winds, summer thunderstorms, rising streams or high waves) Be aware and pay attention to the latest weather updates, especially if you carry out activities exposed to weather or close to a stream or shoreline. 


Meteo18 Weather Cam more information Meteo18 Weather Cam


Thunder radar more information blitzortung!


Rain radar more information rain snow radar


Visit our other weather sites:

Template documentation
and downloads

And another site



Weather Underground History page Text

Daily Summary for August 21, 2017 Units:  Metric    English   Both
« Previous Day
Next Day »
Daily Weekly Monthly Yearly Custom
  High: Low: Average:
Temperature: -17.8 °C -10.9 °C -7.1 °C
Dew Point: -17.8 °C -12.2 °C -10.7 °C
Humidity: Humidity % 47 % 68 %
Wind Speed: 0 km/h 0 km/h 3.4 km/h
Wind Gust: 0 km/h - -
Wind:- - ESE
Pressure: 0 hPa 34577.8 hPa -
Precipitation: 0 mm    
Historical Graphs
 
 
Tabular Data for August 21, 2017
Time Temperature Dew Point Pressure Wind Wind Speed Wind Gust Humidity Rainfall Rate (Hourly)
-17.8 °C -17.8 °C 0 hPa Calm     Humidity % 0 mm
00:02 -10 °C -11.7 °C 34740.4 hPa Calm   2.6 km/h 82 % 0 mm
00:12 -10 °C -11.8 °C 34740.4 hPa Calm   2.6 km/h 81 % 0 mm
00:17 -10.1 °C -11.8 °C 34740.4 hPa Calm   2.6 km/h 82 % 0 mm
00:22 -10.1 °C -11.8 °C 34740.4 hPa Calm   2.6 km/h 81 % 0 mm
00:32 -9.9 °C -11.8 °C 34740.4 hPa Calm   2.6 km/h 80 % 0 mm
00:37 -9.9 °C -11.8 °C 34740.4 hPa Calm   2.6 km/h 80 % 0 mm
00:42 -9.9 °C -11.8 °C 34740.4 hPa Calm   2.6 km/h 80 % 0 mm
00:52 -10.2 °C -11.8 °C 34740.4 hPa Calm   2.6 km/h 83 % 0 mm
00:57 -10.3 °C -11.8 °C 34740.4 hPa Calm   2.6 km/h 84 % 0 mm
01:02 -10.4 °C -11.9 °C 34740.4 hPa WNW 2.6 km/h 2.6 km/h 84 % 0 mm
01:09 -10.5 °C -11.9 °C 34740.4 hPa Calm   5.1 km/h 84 % 0 mm
01:17 -10.5 °C -11.9 °C 34740.4 hPa WNW 2.6 km/h 5.1 km/h 85 % 0 mm
01:22 -10.4 °C -11.9 °C 34740.4 hPa Calm   2.6 km/h 84 % 0 mm
01:29 -10.3 °C -11.9 °C 34740.4 hPa Calm   2.6 km/h 83 % 0 mm
01:37 -10.4 °C -11.9 °C 34740.4 hPa Calm   2.6 km/h 83 % 0 mm
01:42 -10.4 °C -12 °C 34726.8 hPa Calm   2.6 km/h 83 % 0 mm
01:47 -10.4 °C -11.9 °C 34726.8 hPa Calm   2.6 km/h 84 % 0 mm
01:52 -10.5 °C -11.9 °C 34726.8 hPa Calm   2.6 km/h 84 % 0 mm
01:57 -10.6 °C -12 °C 34726.8 hPa Calm   2.6 km/h 85 % 0 mm
02:02 -10.6 °C -12 °C 34726.8 hPa Calm   2.6 km/h 85 % 0 mm
02:12 -10.3 °C -12 °C 34726.8 hPa Calm   5.1 km/h 82 % 0 mm
02:17 -10.3 °C -12 °C 34740.4 hPa Calm   5.1 km/h 82 % 0 mm
02:22 -10.4 °C -12.1 °C 34726.8 hPa Calm   5.1 km/h 82 % 0 mm
02:32 -10.4 °C -12.1 °C 34726.8 hPa Calm   2.6 km/h 82 % 0 mm
02:42 -10.5 °C -12.1 °C 34726.8 hPa Calm     83 % 0 mm
02:47 -10.6 °C -12.1 °C 34726.8 hPa Calm     84 % 0 mm
02:52 -10.7 °C -12.1 °C 34726.8 hPa Calm     85 % 0 mm
03:02 -10.7 °C -12.1 °C 34726.8 hPa Calm     85 % 0 mm
03:12 -10.7 °C -12.1 °C 34726.8 hPa Calm     85 % 0 mm
03:17 -10.8 °C -12.1 °C 34726.8 hPa Calm     86 % 0 mm
03:22 -10.8 °C -12.1 °C 34726.8 hPa Calm     86 % 0 mm
03:32 -10.9 °C -12.2 °C 34726.8 hPa Calm     86 % 0 mm
03:42 -10.9 °C -12.2 °C 34726.8 hPa Calm     86 % 0 mm
03:47 -10.9 °C -12.2 °C 34726.8 hPa Calm     86 % 0 mm
03:52 -10.9 °C -12.2 °C 34716.7 hPa Calm     86 % 0 mm
03:57 -10.9 °C -12.1 °C 34716.7 hPa Calm     87 % 0 mm
04:02 -10.8 °C -12 °C 34726.8 hPa Calm     87 % 0 mm
04:07 -10.8 °C -12.1 °C 34716.7 hPa Calm     86 % 0 mm
04:12 -10.7 °C -11.9 °C 34716.7 hPa Calm     87 % 0 mm
04:17 -10.7 °C -11.9 °C 34716.7 hPa Calm     87 % 0 mm
04:22 -10.7 °C -11.8 °C 34716.7 hPa Calm     87 % 0 mm
04:32 -10.6 °C -11.7 °C 34716.7 hPa Calm     88 % 0 mm
04:42 -10.6 °C -11.6 °C 34716.7 hPa Calm     88 % 0 mm
04:47 -10.5 °C -11.7 °C 34716.7 hPa Calm     87 % 0 mm
04:52 -10.4 °C -11.6 °C 34716.7 hPa Calm     87 % 0 mm
05:02 -10.4 °C -11.6 °C 34716.7 hPa Calm     87 % 0 mm
05:12 -10.3 °C -11.5 °C 34716.7 hPa Calm     87 % 0 mm
05:22 -10.3 °C -11.5 °C 34703.1 hPa Calm     87 % 0 mm
05:32 -10.3 °C -11.5 °C 34703.1 hPa Calm     87 % 0 mm
05:42 -10.4 °C -11.4 °C 34703.1 hPa Calm     88 % 0 mm
05:52 -10.4 °C -11.4 °C 34703.1 hPa Calm     88 % 0 mm
05:57 -10.4 °C -11.4 °C 34703.1 hPa Calm     88 % 0 mm
06:02 -10.4 °C -11.4 °C 34703.1 hPa Calm     88 % 0 mm
06:12 -10.3 °C -11.4 °C 34703.1 hPa Calm     88 % 0 mm
06:17 -10.3 °C -11.3 °C 34703.1 hPa Calm     88 % 0 mm
06:22 -10.3 °C -11.3 °C 34703.1 hPa Calm     88 % 0 mm
06:32 -10.2 °C -11.3 °C 34703.1 hPa Calm     88 % 0 mm
06:37 -10.2 °C -11.2 °C 34703.1 hPa Calm     89 % 0 mm
06:42 -10.2 °C -11.2 °C 34703.1 hPa Calm     89 % 0 mm
06:52 -10.2 °C -11.1 °C 34703.1 hPa Calm     90 % 0 mm
06:57 -10.1 °C -11 °C 34703.1 hPa Calm     90 % 0 mm
07:02 -10.1 °C -11.1 °C 34703.1 hPa Calm     89 % 0 mm
07:12 -10.1 °C -11.2 °C 34703.1 hPa Calm     88 % 0 mm
07:17 -10.1 °C -11.1 °C 34703.1 hPa Calm     89 % 0 mm
07:22 -10.1 °C -11.3 °C 34703.1 hPa Calm     87 % 0 mm
07:32 -9.9 °C -11.2 °C 34703.1 hPa Calm     86 % 0 mm
07:37 -9.9 °C -11.3 °C 34703.1 hPa Calm     85 % 0 mm
07:42 -9.9 °C -11.4 °C 34703.1 hPa Calm     83 % 0 mm
07:52 -9.8 °C -11.4 °C 34703.1 hPa Calm     83 % 0 mm
07:57 -9.7 °C -11.3 °C 34703.1 hPa Calm     83 % 0 mm
08:02 -9.6 °C -11.4 °C 34716.7 hPa Calm     81 % 0 mm
08:12 -9.3 °C -11.2 °C 34716.7 hPa Calm     80 % 0 mm
08:17 -9.3 °C -11.3 °C 34716.7 hPa Calm     79 % 0 mm
08:22 -9.3 °C -11.3 °C 34716.7 hPa Calm     79 % 0 mm
08:32 -9.4 °C -11.2 °C 34716.7 hPa Calm     81 % 0 mm
08:42 -9.3 °C -11.2 °C 34716.7 hPa Calm     80 % 0 mm
08:47 -9.3 °C -11.1 °C 34716.7 hPa Calm     81 % 0 mm
08:57 -8.9 °C -10.9 °C 34703.1 hPa Calm   2.6 km/h 79 % 0 mm
09:07 -8.7 °C -11.1 °C 34703.1 hPa SSW 5.1 km/h 10.3 km/h 75 % 0 mm
09:12 -8.5 °C -11 °C 34716.7 hPa SSW 2.6 km/h 10.3 km/h 75 % 0 mm
09:17 -8.4 °C -11.1 °C 34716.7 hPa Calm   10.3 km/h 73 % 0 mm
09:22 -8.2 °C -11 °C 34703.1 hPa SSW 2.6 km/h 10.3 km/h 72 % 0 mm
09:27 -8 °C -10.8 °C 34703.1 hPa SSE 5.1 km/h 5.1 km/h 72 % 0 mm
09:32 -7.9 °C -10.9 °C 34703.1 hPa SSW 2.6 km/h 5.1 km/h 71 % 0 mm
09:42 -7.6 °C -10.9 °C 34703.1 hPa WSW 5.1 km/h 10.3 km/h 68 % 0 mm
09:52 -7.6 °C -11.2 °C 34703.1 hPa SW 5.1 km/h 10.3 km/h 66 % 0 mm
09:57 -7.4 °C -11.1 °C 34703.1 hPa SSE 2.6 km/h 12.9 km/h 66 % 0 mm
10:02 -7.3 °C -11 °C 34703.1 hPa SW 12.9 km/h 12.9 km/h 65 % 0 mm
10:12 -7.1 °C -10.7 °C 34703.1 hPa SW 12.9 km/h 15.6 km/h 66 % 0 mm
10:22 -7 °C -11 °C 34703.1 hPa SW 5.1 km/h 15.6 km/h 63 % 0 mm
10:32 -6.8 °C -10.8 °C 34703.1 hPa SSW 10.3 km/h 15.6 km/h 63 % 0 mm
10:42 -6.7 °C -11.3 °C 34703.1 hPa South 7.7 km/h 12.9 km/h 59 % 0 mm
10:47 -6.6 °C -11.1 °C 34703.1 hPa WSW 5.1 km/h 15.6 km/h 60 % 0 mm
10:52 -6.6 °C -11.3 °C 34703.1 hPa SSW 10.3 km/h 15.6 km/h 58 % 0 mm
10:57 -6.6 °C -11.3 °C 34703.1 hPa SW 12.9 km/h 18.2 km/h 58 % 0 mm
11:02 -6.5 °C -10.9 °C 34703.1 hPa SSW 2.6 km/h 18.2 km/h 60 % 0 mm
11:12 -6.1 °C -10.8 °C 34693 hPa SW 10.3 km/h 18.2 km/h 58 % 0 mm
11:17 -6.1 °C -11.1 °C 34693 hPa Calm   12.9 km/h 56 % 0 mm
11:22 -5.9 °C -11.3 °C 34693 hPa South 5.1 km/h 12.9 km/h 54 % 0 mm
11:32 -5.8 °C -11.2 °C 34682.8 hPa Calm   12.9 km/h 54 % 0 mm
11:42 -5.6 °C -11.1 °C 34682.8 hPa SSW 2.6 km/h 15.6 km/h 53 % 0 mm
11:52 -5.3 °C -10.9 °C 34693 hPa Calm   12.9 km/h 53 % 0 mm
12:02 -5.1 °C -11.2 °C 34693 hPa Calm   10.3 km/h 50 % 0 mm
12:12 -5.2 °C -11.2 °C 34682.8 hPa ENE 10.3 km/h 10.3 km/h 51 % 0 mm
12:17 -5.3 °C -11.2 °C 34682.8 hPa ENE 2.6 km/h 10.3 km/h 51 % 0 mm
12:22 -5.2 °C -11 °C 34682.8 hPa Calm   10.3 km/h 52 % 0 mm
12:32 -5.3 °C -11.1 °C 34682.8 hPa SSW 2.6 km/h 18.2 km/h 52 % 0 mm
12:42 -4.7 °C -10.8 °C 34682.8 hPa ENE 7.7 km/h 12.9 km/h 50 % 0 mm
12:47 -4.7 °C -10.9 °C 34682.8 hPa East 12.9 km/h 12.9 km/h 49 % 0 mm
12:52 -5.2 °C -11.1 °C 34682.8 hPa SW 10.3 km/h 12.9 km/h 51 % 0 mm
13:02 -4.8 °C -10.8 °C 34682.8 hPa NNE 7.7 km/h 15.6 km/h 51 % 0 mm
13:07 -4.7 °C -10.5 °C 34682.8 hPa NNW 10.3 km/h 23.3 km/h 52 % 0 mm
13:12 -4.7 °C -10.6 °C 34682.8 hPa ENE 10.3 km/h 23.3 km/h 51 % 0 mm
13:17 -4.8 °C -10.8 °C 34669.3 hPa East 7.7 km/h 25.9 km/h 51 % 0 mm
13:22 -4.8 °C -10.6 °C 34669.3 hPa North 7.7 km/h 25.9 km/h 52 % 0 mm
13:32 -4.7 °C -10.8 °C 34669.3 hPa NW 2.6 km/h 23.3 km/h 50 % 0 mm
13:42 -4.6 °C -10.7 °C 34659.1 hPa NNE 7.7 km/h 12.9 km/h 50 % 0 mm
13:47 -4.5 °C -10.3 °C 34659.1 hPa North 10.3 km/h 12.9 km/h 52 % 0 mm
13:52 -4.4 °C -10.4 °C 34659.1 hPa Calm   12.9 km/h 51 % 0 mm
14:02 -4.2 °C -10.5 °C 34659.1 hPa NNW 5.1 km/h 15.6 km/h 49 % 0 mm
14:07 -4.3 °C -10.3 °C 34659.1 hPa NE 5.1 km/h 10.3 km/h 51 % 0 mm
14:12 -4.2 °C -10.3 °C 34659.1 hPa NNE 7.7 km/h 10.3 km/h 50 % 0 mm
14:17 -4.2 °C -10.5 °C 34645.6 hPa NE 7.7 km/h 18.2 km/h 49 % 0 mm
14:22 -4.3 °C -10.5 °C 34645.6 hPa NW 2.6 km/h 18.2 km/h 50 % 0 mm
14:32 -4 °C -10.2 °C 34645.6 hPa Calm   18.2 km/h 50 % 0 mm
14:42 -3.7 °C -10.3 °C 34645.6 hPa SE 2.6 km/h 7.7 km/h 48 % 0 mm
14:47 -3.7 °C -10.2 °C 34645.6 hPa SSW 5.1 km/h 7.7 km/h 48 % 0 mm
14:57 -3.5 °C -10.3 °C 34645.6 hPa NNE 5.1 km/h 12.9 km/h 47 % 0 mm
15:02 -3.7 °C -10.4 °C 34635.4 hPa Calm   12.9 km/h 47 % 0 mm
15:12 -3.5 °C -10.1 °C 34635.4 hPa ENE 5.1 km/h 12.9 km/h 48 % 0 mm
15:17 -3.5 °C -10.3 °C 34635.4 hPa ENE 5.1 km/h 12.9 km/h 47 % 0 mm
15:22 -3.7 °C -10.2 °C 34635.4 hPa ENE 15.6 km/h 18.2 km/h 48 % 0 mm
15:32 -3.9 °C -10.3 °C 34625.2 hPa Calm   18.2 km/h 49 % 0 mm
15:37 -3.8 °C -10.2 °C 34625.2 hPa Calm   18.2 km/h 49 % 0 mm
15:42 -3.6 °C -9.9 °C 34625.2 hPa ENE 7.7 km/h 15.6 km/h 49 % 0 mm
15:47 -3.5 °C -10.1 °C 34625.2 hPa Calm   12.9 km/h 48 % 0 mm
15:52 -3.3 °C -9.9 °C 34625.2 hPa North 5.1 km/h 10.3 km/h 48 % 0 mm
16:02 -3.4 °C -10 °C 34611.7 hPa WSW 12.9 km/h 12.9 km/h 48 % 0 mm
16:07 -3.4 °C -9.7 °C 34611.7 hPa Calm   12.9 km/h 50 % 0 mm
16:17 -3.3 °C -9.9 °C 34611.7 hPa NE 10.3 km/h 12.9 km/h 48 % 0 mm
16:22 -3.2 °C -9.8 °C 34611.7 hPa NE 5.1 km/h 15.6 km/h 48 % 0 mm
16:32 -3.2 °C -9.8 °C 34611.7 hPa SSW 2.6 km/h 15.6 km/h 48 % 0 mm
16:42 -3 °C -9.8 °C 34611.7 hPa WSW 7.7 km/h 12.9 km/h 47 % 0 mm
16:47 -2.9 °C -9.7 °C 34611.7 hPa Calm   15.6 km/h 47 % 0 mm
16:52 -2.8 °C -9.7 °C 34611.7 hPa Calm   15.6 km/h 47 % 0 mm
17:02 -2.8 °C -9.7 °C 34601.5 hPa WNW 7.7 km/h 12.9 km/h 47 % 0 mm
17:12 -3.1 °C -9.6 °C 34601.5 hPa NNW 5.1 km/h 12.9 km/h 49 % 0 mm
17:17 -3.2 °C -9.8 °C 34601.5 hPa North 7.7 km/h 23.3 km/h 48 % 0 mm
17:22 -3.2 °C -9.9 °C 34601.5 hPa NNE 2.6 km/h 23.3 km/h 47 % 0 mm
17:32 -3.2 °C -9.8 °C 34601.5 hPa South 2.6 km/h 23.3 km/h 48 % 0 mm
17:37 -2.9 °C -9.6 °C 34601.5 hPa Calm   10.3 km/h 48 % 0 mm
17:42 -3.1 °C -9.7 °C 34601.5 hPa East 5.1 km/h 10.3 km/h 48 % 0 mm
17:52 -3.3 °C -9.7 °C 34601.5 hPa Calm   12.9 km/h 49 % 0 mm
18:02 -3.4 °C -9.8 °C 34591.4 hPa East 5.1 km/h 12.9 km/h 49 % 0 mm
18:07 -3.4 °C -9.8 °C 34591.4 hPa ENE 5.1 km/h 12.9 km/h 49 % 0 mm
18:17 -3.3 °C -9.7 °C 34591.4 hPa WNW 10.3 km/h 15.6 km/h 49 % 0 mm
18:22 -3.3 °C -9.7 °C 34591.4 hPa Calm   15.6 km/h 49 % 0 mm
18:32 -2.7 °C -9.5 °C 34591.4 hPa North 5.1 km/h 10.3 km/h 47 % 0 mm
18:42 -3.1 °C -9.7 °C 34591.4 hPa NE 15.6 km/h 15.6 km/h 48 % 0 mm
18:52 -3.4 °C -9.4 °C 34591.4 hPa NE 10.3 km/h 18.2 km/h 51 % 0 mm
18:57 -3.4 °C -9.5 °C 34591.4 hPa NE 2.6 km/h 18.2 km/h 51 % 0 mm
19:02 -3.5 °C -9.6 °C 34591.4 hPa ENE 12.9 km/h 18.2 km/h 51 % 0 mm
19:12 -3.7 °C -9.6 °C 34591.4 hPa ENE 12.9 km/h 23.3 km/h 52 % 0 mm
19:17 -3.8 °C -9.5 °C 34591.4 hPa NNE 10.3 km/h 18.2 km/h 53 % 0 mm
19:22 -3.7 °C -9.4 °C 34591.4 hPa NE 10.3 km/h 18.2 km/h 53 % 0 mm
19:32 -3.7 °C -9.6 °C 34577.8 hPa NE 5.1 km/h 15.6 km/h 52 % 0 mm
19:42 -3.7 °C -9.4 °C 34577.8 hPa NE 10.3 km/h 15.6 km/h 53 % 0 mm
19:52 -3.8 °C -9.6 °C 34577.8 hPa NE 5.1 km/h 18.2 km/h 53 % 0 mm
19:57 -3.8 °C -9.6 °C 34577.8 hPa NE 15.6 km/h 20.8 km/h 53 % 0 mm
20:02 -3.9 °C -9.3 °C 34577.8 hPa NNE 10.3 km/h 20.8 km/h 55 % 0 mm
20:12 -4.1 °C -9.3 °C 34577.8 hPa NE 7.7 km/h 23.3 km/h 56 % 0 mm
20:17 -4.2 °C -9.3 °C 34577.8 hPa NNE 10.3 km/h 15.6 km/h 57 % 0 mm
20:22 -4.3 °C -9.3 °C 34577.8 hPa NE 10.3 km/h 15.6 km/h 57 % 0 mm
20:32 -4.5 °C -9.2 °C 34577.8 hPa NNE 10.3 km/h 18.2 km/h 59 % 0 mm
20:42 -4.8 °C -9.2 °C 34591.4 hPa NE 5.1 km/h 12.9 km/h 61 % 0 mm
20:47 -4.9 °C -9.1 °C 34591.4 hPa North 7.7 km/h 12.9 km/h 63 % 0 mm
20:52 -5.1 °C -9.2 °C 34591.4 hPa NNE 10.3 km/h 12.9 km/h 63 % 0 mm
20:57 -5.2 °C -9.2 °C 34591.4 hPa NE 2.6 km/h 12.9 km/h 64 % 0 mm
21:02 -5.3 °C -9.2 °C 34591.4 hPa Calm   12.9 km/h 65 % 0 mm
21:07 -5.5 °C -9.1 °C 34591.4 hPa NNE 5.1 km/h 10.3 km/h 67 % 0 mm
21:12 -5.7 °C -9.1 °C 34591.4 hPa NNE 5.1 km/h 10.3 km/h 68 % 0 mm
21:17 -5.8 °C -9.1 °C 34591.4 hPa NNE 5.1 km/h 10.3 km/h 69 % 0 mm
21:22 -5.9 °C -9.2 °C 34591.4 hPa NNE 2.6 km/h 10.3 km/h 69 % 0 mm
21:27 -6 °C -9.2 °C 34591.4 hPa NNE 5.1 km/h 10.3 km/h 70 % 0 mm
21:32 -6.1 °C -9.2 °C 34591.4 hPa NNE 5.1 km/h 10.3 km/h 71 % 0 mm
21:42 -6.3 °C -9.2 °C 34591.4 hPa NNE 5.1 km/h 10.3 km/h 72 % 0 mm
21:52 -6.5 °C -9.2 °C 34591.4 hPa Calm   7.7 km/h 74 % 0 mm
22:02 -6.7 °C -9.3 °C 34591.4 hPa Calm   7.7 km/h 75 % 0 mm
22:12 -6.8 °C -9.3 °C 34591.4 hPa NNE 5.1 km/h 7.7 km/h 75 % 0 mm
22:17 -6.8 °C -9.3 °C 34591.4 hPa NE 5.1 km/h 7.7 km/h 76 % 0 mm
22:22 -6.8 °C -9.3 °C 34591.4 hPa Calm   7.7 km/h 76 % 0 mm
22:27 -6.8 °C -9.3 °C 34601.5 hPa Calm   10.3 km/h 76 % 0 mm
22:32 -6.8 °C -9.3 °C 34601.5 hPa NE 7.7 km/h 10.3 km/h 76 % 0 mm
22:42 -6.9 °C -9.3 °C 34601.5 hPa Calm   7.7 km/h 76 % 0 mm
22:47 -6.9 °C -9.3 °C 34601.5 hPa Calm   7.7 km/h 76 % 0 mm
22:52 -7 °C -9.4 °C 34601.5 hPa North 2.6 km/h 7.7 km/h 76 % 0 mm
23:02 -7.1 °C -9.3 °C 34601.5 hPa NE 2.6 km/h 5.1 km/h 77 % 0 mm
23:12 -7 °C -9.4 °C 34601.5 hPa NNE 5.1 km/h 10.3 km/h 76 % 0 mm
23:17 -7 °C -9.4 °C 34601.5 hPa NNE 2.6 km/h 10.3 km/h 76 % 0 mm
23:22 -7.1 °C -9.4 °C 34591.4 hPa NNE 7.7 km/h 10.3 km/h 76 % 0 mm
23:27 -7.1 °C -9.4 °C 34591.4 hPa Calm   12.9 km/h 76 % 0 mm
23:32 -7.1 °C -9.5 °C 34591.4 hPa Calm   12.9 km/h 76 % 0 mm
23:42 -7.1 °C -9.4 °C 34601.5 hPa NNE 2.6 km/h 10.3 km/h 77 % 0 mm
23:47 -7.2 °C -9.5 °C 34601.5 hPa Calm   10.3 km/h 77 % 0 mm
23:57 -7.3 °C -9.4 °C 34601.5 hPa Calm   7.7 km/h 78 % 0 mm
Meteo18
Compliments of Weather Underground - 4 mb

Script developed by  Jim McMurry - jmcmurry@mwt.net Adapted for the template by  Wim van der Kuil - Leuven-Template.eu

You find our weather info also at:

European Weather Network

Weather Underground

Equipment we use:

Weather-station
Davis Vue

Weather-program
Meteobridge

Weather-server
Raspberry PI 2 B+

Provider
1 and 1

Davis Vue

Meteobridge

Raspberry PI 2 B+

1 and 1